Nashua, NH

1:30 PM EST on November 17, 2017 (GMT -0500)
Boire

Weather History for KASH - October, 2011

Change the Weather History Date:

Thursday, October 20, 2011

  Actual Average Record
Temperature  
Mean Temperature 59 °F -  
Max Temperature 66 °F 58 °F 78 °F (1950)
Min Temperature 52 °F 36 °F 19 °F (1948)
Degree Days  
Heating Degree Days 6    
Growing Degree Days 9 (Base 50)    
Moisture  
Dew Point 52 °F    
Average Humidity 89    
Maximum Humidity 100    
Minimum Humidity 52    
Precipitation  
Precipitation 0.35 in - - ()
Sea Level Pressure  
Sea Level Pressure 29.55 in    
Wind  
Wind Speed 5 mph (NE)    
Max Wind Speed 12 mph    
Max Gust Speed 22 mph    
Visibility 5 miles    
Events Rain    
Averages and records for this station are not official NWS values.
T = Trace of Precipitation, MM = Missing Value Source: NWS Daily Summary

Daily Weather History Graph

Daily Weather History Graph

Search for Another Location

Airport or City:

Trip Planner

Search our weather history database for the weather conditions in past years. The results will help you decide how hot, cold, wet, or windy it might be!

Date:

Astronomy

Oct. 20, 2011 Rise Set
Actual Time 7:04 AM EDT 5:56 PM EDT
Civil Twilight 6:36 AM EDT 6:24 PM EDT
Nautical Twilight 6:03 AM EDT 6:57 PM EDT
Astronomical Twilight 5:30 AM EDT 7:30 PM EDT
Moon No Moon Rise 2:12 PM EDT (10/20)
Length of Visible Light 11h 48m
Length of Day
10h 51m
Last Quarter, 44% of the Moon is Illuminated
Oct 20
Last Quarter
Oct 26
New
Nov 2
First Quarter
Nov 10
Full
Nov 18
Last Quarter

Hourly Weather History & Observations

Time (EDT) Temp. Dew Point Humidity Pressure Visibility Wind Dir Wind Speed Gust Speed Precip Events Conditions
12:24 AM 55.4 °F 53.6 °F 94% 29.66 in 2.0 mi Variable 6.9 mph - 0.00 in Rain Light Rain
12:43 AM 53.6 °F 51.8 °F 94% 29.64 in 3.0 mi Variable 4.6 mph - 0.01 in Rain Light Rain
12:51 AM 54.0 °F 52.0 °F 93% 29.66 in 5.0 mi Variable 4.6 mph - 0.01 in Rain Light Rain
1:22 AM 53.6 °F 51.8 °F 94% 29.64 in 2.0 mi NNE 4.6 mph - 0.09 in Rain Heavy Rain
1:51 AM 54.0 °F 52.0 °F 93% 29.62 in 3.0 mi Variable 4.6 mph - 0.21 in Rain Heavy Rain
2:01 AM 53.6 °F 51.8 °F 94% 29.59 in 4.0 mi Variable 5.8 mph - 0.02 in Rain Light Rain
2:08 AM 53.6 °F 51.8 °F 94% 29.59 in 10.0 mi ENE 8.1 mph - 0.02 in Rain Light Rain
2:21 AM 53.6 °F 51.8 °F 94% 29.61 in 10.0 mi North 6.9 mph - 0.02 in   Overcast
2:51 AM 54.0 °F 50.9 °F 89% 29.61 in 6.0 mi Variable 5.8 mph - 0.05 in Rain Light Rain
2:59 AM 53.6 °F 51.8 °F 94% 29.60 in 3.0 mi North 3.5 mph - 0.02 in Rain Heavy Rain
3:32 AM 53.6 °F 51.8 °F 94% 29.59 in 2.5 mi North 6.9 mph - 0.03 in Rain Light Rain
3:41 AM 53.6 °F 51.8 °F 94% 29.58 in 4.0 mi Variable 4.6 mph - 0.03 in Rain Light Rain
3:51 AM 52.9 °F 52.0 °F 97% 29.59 in 5.0 mi Variable 5.8 mph - 0.03 in Rain Light Rain
4:22 AM 53.6 °F 51.8 °F 94% 29.58 in 6.0 mi NNE 3.5 mph - 0.01 in Rain Light Rain
4:51 AM 54.0 °F 52.0 °F 93% 29.60 in 5.0 mi North 5.8 mph - 0.01 in Rain Light Rain
5:16 AM 53.6 °F 51.8 °F 94% 29.60 in 2.0 mi NNE 5.8 mph - 0.00 in Rain Light Rain
5:51 AM 54.0 °F 52.0 °F 93% 29.60 in 3.0 mi NNW 3.5 mph - 0.00 in Rain Light Rain
6:51 AM 54.0 °F 52.0 °F 93% 29.57 in 6.0 mi Variable 3.5 mph - 0.00 in   Mostly Cloudy
7:30 AM 53.6 °F 51.8 °F 94% 29.56 in 3.0 mi Variable 4.6 mph - N/A   Mostly Cloudy
7:51 AM 52.9 °F 52.0 °F 97% 29.56 in 3.0 mi Variable 5.8 mph - N/A   Mostly Cloudy
8:51 AM 54.0 °F 52.0 °F 93% 29.53 in 3.0 mi ENE 6.9 mph - N/A   Mostly Cloudy
8:59 AM 53.6 °F 51.8 °F 94% 29.51 in 3.0 mi ENE 5.8 mph - N/A   Mostly Cloudy
9:08 AM 53.6 °F 53.6 °F 100% 29.51 in 3.0 mi ENE 8.1 mph - N/A   Scattered Clouds
9:15 AM 53.6 °F 53.6 °F 100% 29.51 in 3.0 mi ENE 5.8 mph - N/A   Mostly Cloudy
9:29 AM 53.6 °F 53.6 °F 100% 29.52 in 2.0 mi Variable 3.5 mph - N/A   Mostly Cloudy
9:51 AM 54.0 °F 52.9 °F 96% 29.52 in 1.5 mi ENE 4.6 mph - N/A   Mostly Cloudy
9:54 AM 53.6 °F 53.6 °F 100% 29.51 in 0.8 mi Calm Calm - N/A   Mist
10:07 AM 53.6 °F 53.6 °F 100% 29.51 in 1.2 mi Calm Calm - 0.01 in Rain Light Rain
10:28 AM 55.4 °F 53.6 °F 94% 29.51 in 1.0 mi NE 5.8 mph - 0.01 in Rain Light Rain
10:38 AM 55.4 °F 53.6 °F 94% 29.51 in 1.2 mi Calm Calm - 0.01 in Rain Light Rain
10:51 AM 54.9 °F 54.0 °F 97% 29.51 in 1.2 mi ENE 3.5 mph - 0.01 in Rain Light Rain
11:12 AM 55.4 °F 53.6 °F 94% 29.51 in 2.0 mi Calm Calm - 0.02 in Rain Light Rain
11:20 AM 55.4 °F 53.6 °F 94% 29.51 in 1.8 mi East 3.5 mph - 0.02 in Rain Light Rain
11:42 AM 55.4 °F 53.6 °F 94% 29.50 in 2.0 mi Calm Calm - 0.03 in   Clear
11:51 AM 55.9 °F 54.0 °F 93% 29.50 in 2.5 mi ENE 4.6 mph - 0.03 in Rain Light Rain
12:06 PM 55.4 °F 55.4 °F 100% 29.48 in 3.0 mi ENE 4.6 mph - 0.00 in   Overcast
12:51 PM 56.8 °F 55.9 °F 97% 29.47 in 6.0 mi ENE 5.8 mph - 0.00 in   Overcast
1:51 PM 59.0 °F 56.8 °F 93% 29.46 in 4.0 mi Calm Calm - N/A   Overcast
2:29 PM 64.4 °F 60.8 °F 88% 29.44 in 9.0 mi Variable 3.5 mph - N/A   Mostly Cloudy
2:42 PM 64.4 °F 60.8 °F 88% 29.44 in 9.0 mi South 5.8 mph - N/A   Scattered Clouds
2:51 PM 65.8 °F 59.0 °F 79% 29.45 in 10.0 mi Variable 4.6 mph - N/A   Scattered Clouds
3:51 PM 66.9 °F 48.9 °F 52% 29.47 in 10.0 mi South 11.5 mph 21.9 mph N/A   Scattered Clouds
4:51 PM 64.9 °F 46.9 °F 52% 29.49 in 10.0 mi South 9.2 mph - N/A   Clear
5:51 PM 61.9 °F 47.8 °F 60% 29.52 in 10.0 mi Variable 6.9 mph - N/A   Clear
6:51 PM 59.0 °F 47.8 °F 66% 29.55 in 10.0 mi Variable 4.6 mph - N/A   Clear
7:51 PM 57.9 °F 47.8 °F 69% 29.58 in 10.0 mi Variable 6.9 mph - N/A   Clear
8:51 PM 56.8 °F 46.9 °F 69% 29.60 in 10.0 mi Variable 4.6 mph - N/A   Clear
9:51 PM 55.9 °F 47.8 °F 74% 29.62 in 10.0 mi Variable 3.5 mph - N/A   Clear
10:51 PM 54.9 °F 47.8 °F 77% 29.65 in 10.0 mi Calm Calm - N/A   Mostly Cloudy